Location: Mizzole
(45.4833°N, 11.0500°E)
Time: 21:23:18
(UTC+00:00)

BREEZE-M DEB (TANK) - Pass Details

Date: 21 October 2019
Orbit: 668 x 22260 km, 51.1° (Epoch: 14 November)

Event Time Altitude Azimuth Distance (km) Brightness Sun altitude
Rises 18:00:31 0° 297° (WNW) 3,143 7.4 -18.2°
Reaches altitude 10° 18:02:07 10° 296° (WNW) 2,411 6.6 -18.5°
Maximum altitude 18:06:53 80° 209° (SSW) 1,336 4.2 -19.3°
Enters shadow 18:18:43 17° 126° (SE) 5,893 7.0 -21.4°
